Simultaneous Nadir Overpasses (SNOs) Predictions

Prediction of SNOs between FY3D and METOP-C Satellite Orbit:

Table of predicted SNOs for the next 14.0 days since TLE Epoch: 11/20/2023
Index Date (FY3D) Time (FY3D) Lat,Lon (FY3D) SZA (FY3D ) Date (METOP-C) Time (METOP-C) Lat,Lon (METOP-C) SZA (METOP-C ) Distance(km) Time Diff (sec)
1 12/03/2023 16:56:52 75.72, -77.60 97.77 12/03/2023 16:58:01 75.65, -75.57 97.70 56.23 69
2 12/03/2023 17:47:34 -75.60, 90.09 82.35 12/03/2023 17:48:45 -75.55, 91.45 82.40 38.11 71
3 12/03/2023 18:38:15 75.33,-101.76 97.39 12/03/2023 18:39:29 75.34,-101.85 97.40 2.73 74
4 12/03/2023 19:29:00 -75.36, 65.48 82.58 12/03/2023 19:30:11 -75.34, 65.48 82.60 1.87 71
5 12/03/2023 20:19:46 75.33,-127.11 97.39 12/03/2023 20:20:51 75.33,-127.24 97.39 3.71 65
6 12/03/2023 21:10:31 -75.35, 40.13 82.58 12/03/2023 21:11:33 -75.33, 40.08 82.61 3.17 62
7 12/03/2023 22:01:18 75.36,-152.61 97.44 12/03/2023 22:02:12 75.36,-152.49 97.43 3.29 54
8 12/03/2023 22:52:02 -75.34, 14.77 82.58 12/03/2023 22:52:54 -75.35, 14.83 82.57 2.00 52
9 12/03/2023 23:42:49 75.35,-177.96 97.44 12/03/2023 23:43:34 75.34,-177.89 97.43 2.68 45
10 12/04/2023 00:33:33 -75.33, -10.58 82.58 12/04/2023 00:34:16 -75.34, -10.57 82.58 0.39 43
11 12/04/2023 01:24:20 75.35, 156.69 97.44 12/04/2023 01:24:56 75.32, 156.72 97.42 2.96 36
12 12/04/2023 02:15:04 -75.32, -35.93 82.58 12/04/2023 02:15:38 -75.32, -35.96 82.59 1.23 34
13 12/04/2023 03:05:51 75.34, 131.34 97.44 12/04/2023 03:06:17 75.35, 131.47 97.46 3.76 26



Historial Predications of SNOs between FY3D and METOP-C
